Location: Saint-Pierre
(43.7928°N, 3.4259°E)
Time: 05:02:51
(UTC+00:00)

Daily predictions for brighter satellites

Satellite Brightness Start Highest point End
(mag) Time Altitude Azimuth Time Altitude Azimuth Time Altitude Azimuth
Cosmos 2322 Rocket 4.4 02:20:05 18° NNE 02:20:05 18° NNE 02:21:31 10° NNE
Cosmos 2360 Rocket 4.0 02:30:10 27° NE 02:30:10 27° NE 02:32:39 10° NNE
COSMOS 2455 4.2 02:31:45 36° ENE 02:31:45 36° ENE 02:35:39 10° NE
Cosmos 2278 Rocket 4.2 03:01:14 10° N 03:05:57 26° NE 03:10:36 10° ESE
Cosmos 2333 Rocket 3.0 03:06:30 45° ESE 03:06:55 46° ESE 03:12:18 10° NE
USA 267 3.3 03:08:21 10° NE 03:14:41 62° NNW 03:14:41 62° NNW
ADEOS II 4.1 03:14:40 10° N 03:15:59 17° N 03:15:59 17° N
Cosmos 2333 4.2 03:22:16 73° NE 03:22:16 73° NE 03:27:22 10° NNE
SL-16 R/B 4.0 03:30:46 18° NNW 03:30:46 18° NNW 03:32:58 10° N
CZ-2C R/B 4.3 03:25:49 10° NE 03:30:21 30° E 03:34:49 10° SSE
Cosmos 2322 3.9 03:31:45 61° NNW 03:31:45 61° NNW 03:36:45 10° NNE
BREEZE-M DEB (TANK) 3.9 03:37:12 29° SE 03:37:12 29° SE 03:38:37 10° SE
Cosmos 1709 Rocket 3.8 03:36:00 57° SSW 03:37:21 81° W 03:43:44 10° N
Cosmos 2219 Rocket 2.1 03:38:52 64° S 03:39:46 83° ESE 03:45:23 10° NNE
Cosmos 2237 Rocket 3.6 03:41:42 10° S 03:46:52 37° ESE 03:52:04 10° NE
USA 234 3.1 03:41:46 10° SE 03:48:18 74° SW 03:50:49 41° WNW
NOSS 2-2 (D) 3.9 03:49:47 51° NNE 03:49:47 51° NNE 03:52:56 10° NE
IDEFIX/ARIANE 42P 2.4 03:49:28 10° N 03:54:44 74° WNW 03:55:58 52° SW
Cosmos 292 Rocket 4.4 03:51:31 10° NNW 03:56:14 55° ENE 04:00:56 10° SE
COSMOS 2428 2.6 03:56:22 51° SW 03:57:46 73° WNW 04:03:27 10° NNE
Cosmos 44 4.3 03:55:54 16° NNW 03:58:58 38° NE 04:03:00 10° ESE
PAYLOAD A 4.2 03:55:25 10° NNE 04:00:13 66° ESE 04:05:10 10° S
Meteor 1-31 Rocket 4.2 03:57:14 10° NNE 04:00:48 37° E 04:04:20 10° SSE
Cosmos 2322 Rocket 4.1 04:01:54 15° NNW 04:01:54 15° NNW 04:04:07 10° N
Cosmos 1992 Rocket 4.0 04:01:04 56° WSW 04:01:04 56° WSW 04:06:03 10° S
Cosmos 1980 4.3 03:57:58 10° S 04:03:28 54° ESE 04:08:58 10° NNE
H-2A R/B 2.4 03:59:20 10° NNE 04:03:28 89° E 04:04:58 40° SSW
BREEZE-M DEB (TANK) 3.9 04:04:47 24° NE 04:04:47 24° NE 04:05:57 10° NE
ATLAS 3B R/B 3.3 04:01:38 10° NNW 04:08:11 54° NE 04:14:53 10° SE
Cosmos 1470 3.3 04:04:37 10° N 04:08:31 59° E 04:12:21 10° SSE
Cosmos 1842 3.8 04:11:45 43° NNW 04:11:45 43° NNW 04:14:43 10° N
Cosmos 1707 4.0 04:07:26 10° SSE 04:11:08 43° E 04:14:52 10° NNE
Cosmos 2360 Rocket 3.5 04:11:57 22° NW 04:11:57 22° NW 04:15:57 10° N
Cosmos 2251 Rocket 4.2 04:12:41 36° WNW 04:12:43 36° WNW 04:17:40 10° N
Cosmos 2074 Rocket 4.1 04:07:32 10° S 04:13:46 80° E 04:20:01 10° N
NOSS 0 Rocket 4.0 04:09:01 10° SSW 04:15:08 79° ESE 04:21:21 10° NNE
COSMOS 2455 3.5 04:14:56 33° WNW 04:16:00 35° NW 04:21:30 10° NNE
PSLV R/B 4.2 04:16:08 10° N 04:19:29 35° NW 04:19:29 35° NW
Cosmos 2181 Rocket 4.1 04:15:22 10° NNW 04:21:30 51° W 04:27:30 10° SSW
CENTAUR R/B 3.4 04:13:45 10° NW 04:21:47 74° NE 04:30:29 10° SE
Cosmos 1025 Rocket 3.0 04:20:30 38° SW 04:21:49 55° W 04:26:01 10° N
OE (NEXTSAT) 4.2 04:23:10 63° W 04:23:40 82° SSW 04:27:11 10° ESE
NOSS 2-2 (C) 3.8 04:25:19 37° NW 04:25:31 37° NW 04:29:26 10° NNE
ATLAS 2AS CENTAUR R/B 3.0 04:19:17 16° SW 04:26:01 81° NW 04:34:08 10° NE
USA 238 DEB 4.0 04:24:45 13° NW 04:31:01 49° WSW 04:38:05 10° S
USA 238 4.0 04:24:48 13° NW 04:31:07 50° WSW 04:38:12 10° S
Cosmos 921 Rocket 3.0 04:28:57 10° NNW 04:33:10 55° WSW 04:37:18 10° S
BREEZE-M DEB (TANK) 4.3 04:28:16 11° SW 04:34:59 39° SSE 04:38:01 10° E
Cosmos 1536 Rocket 4.2 04:37:01 30° W 04:37:49 32° WNW 04:41:45 10° N
Cosmos 489 Rocket 4.4 04:32:12 10° NNW 04:38:25 73° WSW 04:44:39 10° S
SL-16 R/B 3.8 04:33:25 10° S 04:38:32 37° ESE 04:43:42 10° NE
Cosmos 1726 4.1 04:39:36 10° NNE 04:42:53 31° ENE 04:46:11 10° SE
Aureole 1 Rocket 4.5 04:42:41 19° WSW 04:46:14 32° WNW 04:50:52 10° N
SKYMED 2 4.1 04:42:50 10° SSE 04:47:06 63° ENE 04:51:25 10° N
Cosmos 1190 Rocket 3.9 04:41:52 10° SSW 04:47:10 78° WNW 04:52:29 10° NNE
CZ-4B R/B 2.8 04:44:16 10° N 04:48:18 60° WNW 04:52:06 10° SSW
Cosmos 407 Rocket 3.4 04:45:01 10° SSW 04:50:07 65° WNW 04:55:14 10° NNE
Cosmos 2278 Rocket 2.3 04:44:49 10° NNW 04:50:22 56° WSW 04:55:53 10° S
Cosmos 2333 Rocket 3.1 04:48:34 20° W 04:51:21 30° NW 04:56:21 10° N
Meteor 1-4 Rocket 2.3 04:52:24 10° SSW 04:55:55 78° WNW 04:59:24 10° N
Cosmos 1892 Rocket 3.9 04:52:07 10° S 04:56:30 69° E 05:00:55 10° NNE
GP-B 3.2 04:52:29 10° S 04:56:54 79° E 05:01:22 10° N
ERBS 2.8 04:55:24 23° W 04:57:04 41° NW 05:00:18 10° NE
USA 267 4.3 04:51:28 10° NE 04:57:04 32° NNW 05:02:02 13° WNW
NOSS 3-2 (A) 4.4 04:50:01 10° NW 04:57:11 43° WSW 05:04:59 10° S
Cosmos 1437 Rocket 3.7 04:59:48 10° S 05:03:30 51° E 05:07:10 10° NNE
PSLV R/B 3.6 05:01:28 10° N 05:05:10 64° WNW 05:08:49 10° SSW
Cosmos 1953 2.6 05:03:41 10° NNW 05:07:34 46° W 05:11:23 10° SSW
COBE Rocket 3.9 05:03:35 10° S 05:08:34 75° W 05:13:42 10° NNW
CZ-2C R/B 3.1 05:03:51 10° N 05:08:36 37° WNW 05:13:18 10° SW
Helios 1A Rocket 3.3 05:06:26 10° NNE 05:10:36 71° ESE 05:14:44 10° S
Cosmos 1606 Rocket 3.6 05:06:43 10° NNW 05:10:56 53° W 05:15:07 10° S
Cosmos 1758 4.5 05:11:13 10° NW 05:14:20 22° W 05:17:27 10° SW
Cosmos 2154 Rocket 4.0 05:08:49 10° SSW 05:14:55 60° W 05:21:04 10° N
NOSS 3-2 (C) 4.4 05:12:36 10° NW 05:19:51 45° WSW 05:27:45 10° S
Okean 1-7 Rocket 3.6 05:15:38 10° SSW 05:20:01 66° W 05:24:30 10° N
ALOS 2.5 05:16:02 10° NNE 05:20:44 78° ESE 05:25:23 10° S
MOS 1-B 4.3 05:15:09 10° N 05:20:56 69° WNW 05:26:42 10° SSW
Cosmos 389 Rocket 3.6 05:20:18 10° SW 05:23:04 22° WNW 05:25:51 10° NNW
Cosmos 2219 Rocket 3.6 05:20:38 10° W 05:24:26 18° NW 05:28:15 10° N
Cosmos 1954 Rocket 4.0 05:20:52 10° SSW 05:26:04 64° WNW 05:31:17 10° NNE
CZ-4B DEB 4.2 05:24:04 10° N 05:29:31 66° WNW 05:34:54 10° SSW
Cosmos 2237 Rocket 2.8 05:25:44 10° WSW 05:30:56 36° NW 05:36:09 10° N
RESURS DK-1 2.3 05:26:52 10° SSW 05:30:59 78° WNW 05:35:09 10° NNE
SJ-12 4.0 05:27:37 10° N 05:31:37 55° WNW 05:35:37 10° SSW
PAYLOAD B 4.2 05:26:31 10° N 05:32:04 71° WNW 05:37:34 10° SSW
IDEFIX/ARIANE 42P 4.4 05:31:58 10° NW 05:33:23 11° NW 05:34:48 10° WNW
Cosmos 1626 Rocket 4.2 05:30:26 10° S 05:34:40 60° E 05:38:56 10° NNE
Meteor 1-31 Rocket 4.3 05:32:27 10° NNW 05:34:56 17° WNW 05:37:25 10° WSW
COSMO-SKYMED 1 3.1 05:31:11 10° SSW 05:35:15 39° W 05:39:21 10° NNW
Nadezhda 3 Rocket 4.4 05:30:37 10° NNW 05:36:32 42° W 05:42:25 10° SSW
NOSS 3-4 (A) 3.9 05:30:49 10° WSW 05:36:33 43° NW 05:42:40 10° NNE
NOSS 3-4 (C) 3.9 05:30:53 10° WSW 05:36:38 44° NW 05:42:47 10° NNE
Cosmos 2341 Rocket 4.0 05:31:04 10° SSW 05:37:17 68° W 05:43:30 10° N
